Lapse_Rate
7.4 7.3 7.3 7.4 7.5 7.6 7.8 8.0 8.1 7.8 7.7 7.3 7.8 7.8 7.8 7.9 8.0 7.5 7.1 6.3 7.7 6.7 6.9 6.6 7.1 6.4 6.5 6.6 6.5 6.7 6.5 6.7 6.5 6.5 6.5 6.5 6.5 6.5 6.5 6.5 6.5 6.5 6.5 6.5 6.5 6.5 6.5 6.6 6.6 6.5 6.5 5.5 5.6 5.6
6.9 7.1 7.2 7.3 7.9 7.7 7.7 7.9 8.0 8.1 7.7 7.5 7.5 7.7 7.7 7.9 8.1 8.0 6.7 7.1 7.7 7.0 6.6 6.3 7.0 6.8 7.3 7.6 6.1 6.5 6.4 6.6 6.7 6.5 6.5 6.5 6.5 6.5 6.5 6.5 6.5 6.5 6.5 6.5 6.5 6.5 6.5 6.9 6.7 5.7 4.8 5.7 5.4 4.9
6.8 6.9 7.2 7.3 7.5 7.5 7.6 7.7 7.7 8.2 7.9 7.4 7.1 7.8 7.9 7.9 7.9 7.6 6.4 5.7 6.8 6.5 6.7 6.4 6.4 6.0 6.4 7.1 7.0 6.9 7.1 7.5 6.9 7.1 6.6 6.5 6.5 6.5 6.5 6.5 6.5 6.5 6.5 6.5 6.5 6.5 6.5 6.9 6.2 5.9 5.0 4.4 4.8 3.8
7.0 7.1 7.1 7.3 7.3 7.6 7.5 7.7 7.7 7.9 7.9 7.4 7.2 7.8 7.9 7.8 7.7 7.4 5.5 5.4 6.1 6.4 6.6 6.6 6.2 6.6 6.8 6.6 6.5 6.9 7.3 7.8 7.7 6.7 6.6 6.5 6.5 6.7 6.5 6.5 6.5 6.5 6.5 6.5 6.5 6.5 6.7 6.8 6.9 5.8 4.8 4.1 3.9 2.5
6.9 7.2 7.1 7.3 7.3 7.5 7.5 7.5 7.5 7.6 7.6 7.5 7.4 7.4 7.8 7.9 7.9 6.8 4.2 5.1 5.8 6.8 6.6 6.5 5.9 6.5 6.4 5.8 5.6 6.6 6.9 7.7 7.0 6.6 6.5 6.5 6.6 6.6 6.5 6.5 6.5 6.6 6.5 6.5 6.5 6.6 6.5 6.2 5.5 4.9 4.3 3.6 2.8 2.6
7.0 6.6 6.8 7.2 7.4 7.4 7.0 6.6 6.5 7.3 7.5 7.5 7.3 7.1 7.3 7.3 4.1 3.8 6.2 4.8 6.1 6.1 6.4 6.5 5.8 6.3 6.1 6.0 6.1 5.9 6.4 7.5 7.2 6.7 6.5 6.8 7.5 6.7 6.5 6.5 6.5 6.3 5.6 5.7 6.5 5.4 5.4 5.1 5.0 4.7 4.6 4.0 2.7 2.7
7.2 7.3 7.3 7.1 7.1 7.2 7.2 7.2 7.3 7.4 7.6 7.4 7.4 7.3 7.1 4.6 5.0 5.6 6.3 5.4 5.3 7.0 6.6 6.5 6.5 6.9 7.6 7.4 6.9 7.4 7.5 6.3 6.0 6.9 6.6 6.7 6.7 6.7 6.5 6.5 6.5 5.5 5.1 5.2 5.4 6.3 6.0 5.1 5.6 4.9 4.7 4.3 3.6 3.1
7.4 7.2 6.9 7.0 6.9 6.7 6.9 7.2 7.2 7.1 7.0 6.4 6.1 5.0 5.9 6.8 6.9 6.3 6.3 6.4 6.9 7.5 6.4 6.5 6.5 6.3 7.0 6.8 6.7 7.1 6.6 6.1 6.2 6.8 6.7 6.5 6.7 6.7 6.5 6.5 5.5 5.6 4.9 4.7 4.7 5.4 6.0 4.9 5.4 4.8 4.2 4.1 4.7 4.5
7.3 7.3 7.4 7.3 7.2 7.3 7.1 6.6 6.5 6.4 6.7 6.9 7.0 6.5 6.1 6.0 5.8 6.5 7.3 7.0 6.8 6.8 6.6 6.6 6.5 6.5 5.4 6.3 6.3 6.5 6.3 6.5 6.5 6.5 6.5 6.7 6.5 6.5 6.5 6.5 6.2 5.5 5.9 6.2 5.6 5.3 5.1 5.0 5.6 5.2 4.9 4.3 4.5 4.0
7.3 7.1 7.0 7.3 7.3 7.2 7.4 7.6 7.7 7.7 7.4 7.5 5.5 4.3 4.8 5.6 7.1 6.9 5.5 5.7 6.7 6.7 6.7 6.5 6.7 6.5 6.5 6.5 6.6 6.6 6.8 6.5 6.5 6.5 6.8 6.5 6.5 5.8 5.3 5.2 5.2 5.3 5.3 5.2 6.0 6.4 5.6 5.6 5.0 5.1 5.0 4.7 4.6 4.3
7.6 7.2 6.7 6.9 7.6 6.9 7.1 7.2 7.4 7.5 6.7 4.5 4.6 6.2 6.0 7.4 5.6 5.6 6.0 6.4 6.7 6.5 7.0 7.0 6.7 6.5 5.4 6.5 6.5 6.7 6.5 6.5 6.5 6.5 6.5 6.5 6.5 6.5 5.5 5.2 4.6 4.1 3.2 3.4 5.1 5.4 6.3 7.0 5.7 4.7 4.0 3.3 2.9 2.8
7.6 7.0 6.3 6.8 6.7 7.0 7.0 7.2 6.8 5.4 5.2 5.5 5.8 7.0 6.6 6.2 5.9 6.5 6.5 6.5 6.5 6.5 6.6 6.5 6.7 6.8 6.2 5.8 6.6 6.6 6.5 6.5 6.5 6.6 6.5 6.5 6.5 6.6 5.3 3.6 2.6 2.1 1.4 1.9 4.0 4.2 5.2 5.4 5.0 4.1 3.4 3.0 1.8 1.3
6.9 7.2 7.3 7.1 7.1 6.7 6.2 5.7 6.4 6.3 5.9 5.8 6.0 6.5 7.0 6.6 6.5 6.5 6.5 6.5 6.5 6.5 6.4 6.8 6.5 6.6 5.9 6.3 6.5 6.5 6.5 6.5 6.6 6.5 6.5 6.5 6.7 6.1 6.0 4.6 3.7 3.5 2.8 3.7 3.4 2.9 2.2 1.0 -0.1 -0.3 -1.2 -2.2 -0.5 -0.2
6.8 6.6 6.4 6.1 6.2 6.3 6.4 6.0 5.5 6.2 5.9 5.8 6.4 6.5 6.5 6.5 6.5 6.5 6.5 6.5 6.3 5.9 6.0 6.3 6.7 6.4 6.2 6.5 6.5 6.5 6.5 6.5 6.5 6.5 6.5 6.5 6.5 6.6 6.1 5.5 4.5 3.3 2.1 2.2 -0.0 -1.0 -2.2 -2.6 -3.1 -3.0 -2.3 -0.6 0.0 -0.6
6.3 6.3 5.8 5.3 5.5 5.4 5.4 6.0 6.0 5.3 4.8 5.3 5.9 6.5 6.5 6.6 6.7 6.5 6.3 6.5 6.8 5.4 5.7 5.6 6.0 6.6 6.5 6.5 6.5 6.5 6.5 6.5 6.5 6.5 6.5 6.5 6.5 6.2 5.7 4.7 3.7 2.7 1.1 1.0 0.9 0.2 -0.6 -0.7 -0.0 0.4 0.4 0.7 0.3 -0.6
5.6 5.7 4.7 5.0 4.6 4.9 5.6 5.1 4.3 4.1 3.8 4.9 6.0 6.5 6.4 6.5 6.4 5.5 6.3 6.7 6.5 4.2 3.5 4.9 6.5 6.5 6.5 6.5 6.5 6.5 6.5 6.5 6.5 6.5 5.2 6.2 5.5 5.7 5.9 4.7 4.5 4.2 3.3 2.2 2.0 1.9 1.6 1.5 1.6 1.7 1.6 1.1 0.3 -0.0
6.3 4.8 5.3 5.4 5.0 4.6 4.5 3.9 3.6 4.6 4.8 6.1 6.6 6.7 6.1 6.3 6.2 3.7 6.1 6.5 6.1 4.7 6.5 6.5 6.5 6.5 6.5 6.5 6.5 6.5 6.5 6.5 6.2 4.0 6.8 5.9 5.3 5.0 5.5 5.3 4.5 4.0 2.9 2.6 2.4 2.7 2.6 2.7 3.2 3.7 3.1 3.4 2.9 2.5
3.9 3.1 4.7 5.3 5.1 3.2 3.1 3.2 4.0 5.3 6.5 6.4 6.5 6.5 6.6 6.9 7.0 7.2 6.8 6.6 5.9 6.4 6.2 6.5 6.6 6.5 6.5 6.5 6.5 6.5 6.2 3.6 5.9 5.0 5.3 4.5 4.2 4.3 4.7 4.8 4.5 3.9 2.9 2.5 2.8 3.1 3.3 4.0 4.3 4.5 4.9 5.6 4.8 4.9
3.6 3.7 4.5 4.9 4.5 3.6 3.5 4.4 4.7 6.1 5.2 5.7 6.3 6.1 6.6 6.7 6.3 6.4 6.2 5.7 6.1 6.7 6.8 6.8 6.5 6.5 6.5 6.5 6.5 4.6 3.2 4.9 4.7 4.7 4.2 4.2 5.0 4.9 4.9 4.8 4.0 3.7 3.3 3.7 5.0 5.3 5.8 5.9 6.2 6.5 6.3 6.5 6.2 6.0
5.6 5.2 5.3 5.3 4.8 4.2 5.6 5.2 5.1 5.8 6.5 6.1 6.2 6.4 6.9 6.9 4.9 5.1 6.1 6.1 6.4 6.4 6.5 6.5 6.5 6.5 5.7 3.8 2.8 3.6 3.1 1.9 3.5 5.9 6.1 5.1 4.8 5.2 5.4 5.5 5.7 5.9 5.9 6.2 6.0 5.7 5.7 5.6 5.9 6.1 6.2 6.4 6.4 6.4
4.6 5.3 5.4 4.8 4.6 4.4 5.4 7.0 6.2 5.9 6.0 6.3 5.4 5.7 5.7 5.9 6.0 6.5 6.9 6.4 6.7 6.7 6.5 6.0 5.0 2.9 3.1 3.4 2.9 3.1 3.0 3.4 4.4 5.0 5.0 6.2 5.4 5.2 5.5 5.8 6.5 6.4 6.4 6.2 5.8 5.7 5.5 5.9 5.8 5.8 6.1 6.3 6.6 6.3
4.2 5.8 4.8 5.0 5.5 6.4 6.8 6.2 6.4 5.9 6.3 6.3 6.1 6.0 6.5 6.5 6.0 6.5 6.3 6.8 6.8 6.3 5.8 4.9 4.7 4.5 4.3 4.6 4.2 4.5 4.1 4.0 4.0 3.4 3.1 4.4 5.8 6.2 6.2 5.9 5.6 5.9 5.8 6.1 6.4 6.2 6.2 5.7 5.7 5.6 5.7 4.4 4.2 4.5
6.1 5.8 4.7 5.9 6.4 5.7 6.2 4.7 6.4 6.5 6.5 6.5 6.5 6.5 6.5 6.6 6.7 6.0 6.6 6.7 6.2 5.4 5.4 5.4 5.4 5.3 5.2 4.6 4.2 4.1 4.5 4.3 4.6 4.5 4.1 4.6 5.0 4.7 5.1 5.5 5.8 5.7 5.7 5.7 5.9 6.1 6.0 5.4 5.3 5.6 5.1 4.7 4.7 4.3
5.3 4.5 5.1 5.8 5.9 6.5 4.5 4.8 5.9 6.5 6.1 6.5 6.5 6.5 6.5 6.5 6.6 6.6 6.5 6.7 6.9 6.4 6.3 6.1 6.1 6.1 5.5 5.5 5.4 5.2 4.7 4.6 4.3 4.0 4.6 4.8 4.7 4.5 4.7 5.1 5.2 5.3 5.5 5.4 5.4 5.6 5.4 5.7 5.3 5.5 5.2 5.0 5.3 5.2
4.2 4.9 3.4 6.4 5.2 6.5 6.5 6.5 6.5 6.5 6.5 6.5 6.5 6.5 6.5 6.9 6.5 6.5 6.5 6.6 6.9 6.5 5.1 5.0 5.6 6.4 6.4 6.0 5.4 5.1 4.7 5.2 5.1 4.8 4.8 5.2 5.0 4.7 5.0 5.0 4.9 5.1 4.8 4.9 4.9 5.0 5.1 5.2 5.3 5.5 5.3 5.5 5.3 5.1
6.5 5.3 6.1 6.5 6.4 6.5 6.5 6.5 6.5 6.5 6.5 6.5 6.5 6.5 6.1 6.5 6.5 6.5 6.5 6.6 5.7 5.4 4.8 5.0 5.4 5.8 6.2 6.3 6.1 5.5 5.4 5.2 5.5 5.7 5.5 5.4 5.2 5.5 5.2 4.9 4.8 5.0 4.6 5.2 5.1 5.0 4.8 4.5 4.8 4.9 5.1 4.8 3.7 4.6
6.5 6.5 6.4 6.9 6.4 6.5 6.3 6.0 6.5 6.5 6.5 6.5 6.5 6.5 6.5 6.5 6.5 6.5 6.2 5.5 4.5 4.1 4.8 4.8 5.3 5.9 5.9 5.8 5.3 4.6 4.3 4.5 5.0 5.1 4.4 4.2 4.4 4.9 5.3 5.3 4.9 4.9 4.1 4.4 4.7 5.1 4.8 4.8 4.8 5.1 5.1 4.6 4.4 4.9
6.8 6.8 6.5 6.0 5.7 5.9 6.5 6.5 6.5 6.5 6.5 6.7 6.4 6.5 6.5 6.5 6.5 5.2 4.3 3.8 3.5 3.4 3.8 4.2 4.3 4.8 5.4 4.9 4.3 3.4 3.0 2.8 2.9 3.1 3.4 3.3 2.5 2.5 2.9 3.7 4.0 3.6 4.5 4.8 5.1 5.3 5.1 5.5 5.3 5.3 5.1 5.2 4.5 3.8
6.7 7.1 6.7 6.5 6.4 6.5 6.5 6.5 6.5 6.2 5.7 5.7 6.5 6.5 6.3 3.9 2.6 2.7 2.2 1.3 2.0 3.0 3.1 2.6 3.4 3.5 5.5 5.1 4.1 3.7 3.4 4.2 5.3 5.6 5.7 5.3 5.5 4.9 2.8 3.5 3.4 4.0 4.7 4.8 4.5 5.6 5.8 5.5 5.3 5.3 5.4 5.3 4.9 4.6
6.1 7.2 6.5 5.8 6.5 6.5 6.5 6.3 5.9 5.3 4.9 6.3 6.0 5.7 5.0 3.7 0.8 2.1 4.3 4.1 4.0 4.3 4.0 4.1 4.3 6.5 6.2 5.5 4.9 4.3 4.4 4.4 4.9 5.6 5.5 5.0 5.1 4.2 4.1 4.6 4.6 4.4 4.8 5.0 4.2 3.6 3.4 3.3 3.3 3.5 4.3 4.7 5.1 4.6
7.2 5.8 6.0 6.2 6.4 5.1 6.2 3.8 1.5 1.3 3.2 4.3 3.6 6.1 6.3 2.4 2.9 3.9 4.4 4.5 5.3 6.1 6.5 6.5 6.2 6.6 6.1 5.4 5.3 5.6 5.2 4.4 4.0 3.5 3.6 3.4 3.1 3.7 4.0 4.5 4.6 4.8 5.0 4.7 4.4 4.6 4.2 4.8 4.8 4.1 3.8 3.6 2.8 3.2
4.8 4.1 5.6 6.5 6.4 6.4 5.9 3.7 3.9 3.3 2.1 2.9 5.3 3.3 5.0 6.6 4.9 4.8 5.6 4.8 4.8 5.1 4.9 5.0 5.6 5.9 5.0 3.8 4.6 4.4 3.9 3.2 3.0 2.4 2.3 2.9 3.7 4.3 4.5 4.7 5.1 5.1 4.9 4.9 4.8 4.7 4.8 4.5 4.3 4.0 3.3 2.7 2.3 2.3
2.7 3.7 3.0 4.4 6.3 5.4 3.7 3.8 4.6 5.5 4.2 4.5 3.9 2.4 2.9 4.8 6.5 5.3 4.5 5.0 4.8 4.5 3.8 3.8 3.0 2.9 3.1 3.4 4.1 2.6 2.0 2.3 1.9 1.7 1.6 3.0 3.3 3.9 4.4 5.1 5.3 5.4 5.1 4.6 4.0 4.2 4.1 4.2 3.5 2.8 2.2 1.7 1.4 1.4
Wind_Speed
29 29 29 30 30 30 31 30 29 30 31 35 33 34 34 35 35 18 9 11 10 4 5 7 9 6 4 4 5 1 3 2 3 6 7 6 5 5 4 3 7 11 7 6 8 9 15 8 5 13 8 4 4 3
28 29 29 28 28 28 28 30 29 28 28 29 35 33 34 34 34 32 6 8 9 5 3 4 9 13 14 12 4 4 4 3 1 3 3 5 4 4 5 4 1 6 7 4 6 5 3 5 10 7 3 3 4 2
18 29 27 27 26 27 27 28 27 28 27 28 27 31 32 33 34 28 8 8 8 3 3 3 10 8 8 12 10 6 4 5 3 3 3 3 5 3 6 5 4 5 5 4 0 7 11 14 12 8 5 6 4 3
11 20 23 23 24 23 25 26 26 26 25 26 28 28 31 32 32 29 6 8 9 3 4 5 5 14 16 12 13 14 16 10 6 3 5 4 4 5 3 2 6 3 10 6 6 7 7 9 11 8 6 5 5 3
20 16 18 21 20 21 23 25 26 26 25 24 27 29 28 28 31 15 6 8 10 6 3 3 3 7 7 12 18 17 16 13 8 4 4 8 5 7 3 1 4 6 7 5 6 7 4 5 8 6 5 7 6 7
25 25 20 14 15 16 16 20 17 20 21 19 20 27 25 23 27 5 2 1 5 2 2 2 3 4 5 14 16 15 12 9 8 5 5 5 14 4 4 3 5 11 7 10 7 2 7 7 4 4 6 6 5 7
28 25 21 20 18 17 17 17 17 16 15 15 19 21 19 32 7 3 3 5 20 3 2 3 3 4 5 6 6 5 9 3 3 3 5 8 4 6 2 3 3 4 7 6 5 2 3 2 2 4 2 5 4 3
29 29 28 25 24 23 20 18 15 12 17 23 29 35 32 28 12 4 3 21 14 3 2 2 4 2 3 3 4 4 4 4 4 3 2 3 3 3 4 6 4 2 1 3 4 3 3 2 3 4 2 2 3 3
27 27 26 25 24 23 24 27 28 29 30 30 32 23 6 5 3 3 20 14 3 1 3 3 2 3 2 1 2 3 2 2 2 2 2 1 2 3 6 3 3 3 1 3 6 5 5 3 5 4 1 1 3 5
23 24 23 21 22 24 24 24 25 27 30 27 5 4 3 0 22 11 4 2 2 3 3 3 2 3 1 2 1 2 2 2 3 3 1 2 3 6 3 3 5 6 6 3 3 4 4 6 6 6 7 6 7 6
19 19 18 18 21 23 23 25 24 21 11 3 3 3 0 12 3 1 3 2 2 3 4 4 7 6 3 4 2 1 1 1 1 0 1 2 3 2 4 4 3 4 6 6 7 10 10 7 5 5 5 5 5 6
16 20 16 15 13 16 18 19 12 4 2 4 5 5 2 2 1 3 4 3 5 4 3 3 3 3 2 2 1 1 2 2 1 1 1 2 2 1 3 7 11 12 14 14 11 7 6 6 6 5 2 2 3 4
15 15 13 13 11 9 14 16 15 8 10 2 2 5 3 2 4 6 6 3 2 3 3 3 3 2 2 2 2 1 2 1 0 2 2 2 3 4 7 7 8 8 9 5 5 5 6 5 4 5 6 6 6 6
12 12 12 10 14 10 4 14 22 13 1 2 3 2 3 3 3 3 2 2 1 1 3 3 2 1 1 3 2 3 1 2 2 2 3 2 1 1 1 3 4 5 6 5 9 7 7 8 9 10 8 5 6 7
16 11 8 8 15 15 9 5 15 2 2 3 3 4 3 1 1 1 1 2 2 2 2 2 2 1 1 4 2 3 3 2 2 3 2 1 2 2 3 3 5 4 2 4 6 6 7 7 10 9 7 7 8 8
19 7 6 18 21 20 6 5 3 2 2 2 3 2 0 1 2 1 2 2 2 1 0 0 2 2 1 4 3 4 6 5 3 3 2 3 3 2 2 3 2 4 5 8 6 6 7 6 9 9 8 9 8 8
10 1 15 20 21 16 9 2 2 2 2 3 1 2 3 1 2 2 2 0 0 1 1 1 2 2 2 1 1 3 4 3 2 2 2 4 6 5 5 5 5 2 6 6 6 7 8 6 6 7 10 8 9 9
2 4 17 17 13 4 3 2 2 1 2 2 2 2 1 3 3 1 0 1 0 2 1 1 2 3 4 4 2 3 4 2 3 3 4 5 5 6 6 7 5 4 6 7 7 6 5 5 7 6 8 8 9 8
7 9 18 16 5 1 2 3 2 1 1 1 1 1 1 0 1 1 2 2 1 1 2 2 2 3 3 3 4 2 2 4 3 4 3 5 5 6 7 6 6 7 7 7 6 5 4 5 5 5 5 5 5 5
15 11 10 4 5 2 1 2 1 1 1 1 1 2 2 1 1 0 1 2 1 1 2 3 3 2 3 2 2 2 2 4 5 4 2 2 3 6 6 6 4 5 5 5 5 5 5 5 4 4 4 5 6 5
7 4 7 1 2 3 2 1 2 1 0 1 1 2 1 2 2 3 3 3 2 2 2 3 3 3 3 2 1 2 2 4 3 2 3 4 3 4 6 5 5 4 4 3 4 4 4 4 4 4 5 4 4 5
3 7 1 3 3 1 1 1 2 3 1 1 0 0 0 1 1 2 3 2 2 2 1 1 2 2 2 3 2 1 1 3 3 3 4 6 5 5 5 5 5 5 5 5 5 5 4 4 5 5 5 4 5 5
5 1 2 2 2 3 2 2 1 1 1 2 1 0 0 1 1 2 1 2 1 1 2 2 3 3 3 2 1 2 3 6 4 4 4 4 4 4 5 6 5 6 6 4 4 4 4 6 6 6 6 6 6 6
5 3 3 2 2 1 2 2 1 1 2 2 2 3 2 2 1 1 1 2 3 3 6 8 4 2 1 1 0 1 1 2 3 2 4 5 4 4 4 5 5 5 4 5 5 4 5 5 7 6 7 7 7 7
4 5 4 4 3 3 4 4 4 3 1 1 2 3 2 3 2 3 2 2 3 4 4 4 5 5 4 2 1 1 1 1 2 2 2 2 3 4 3 3 4 4 5 6 6 6 5 5 6 7 8 7 8 8
5 4 3 3 3 2 2 3 3 3 1 4 1 2 2 2 2 1 1 1 2 1 2 3 4 5 4 3 2 1 1 1 2 1 1 3 3 4 5 5 4 3 4 4 6 7 7 6 6 8 7 7 6 7
5 4 3 1 2 2 2 1 1 2 2 1 2 4 2 3 2 2 0 2 2 2 2 1 2 4 5 6 2 0 1 2 2 1 1 2 1 2 3 5 5 3 5 6 6 8 9 8 7 7 7 5 5 6
5 8 6 6 3 2 2 2 3 3 2 1 2 3 1 4 2 1 2 2 3 4 3 3 3 3 4 4 1 3 3 3 5 4 4 4 4 3 3 2 2 7 5 5 6 6 7 7 7 7 7 7 5 3
5 12 6 5 3 3 3 4 3 2 2 1 1 2 2 2 1 3 3 4 5 4 4 4 3 3 4 3 1 1 3 5 5 4 3 2 1 2 2 2 3 3 4 5 6 6 8 7 7 7 6 6 5 5
5 8 5 4 4 3 1 2 2 2 2 2 2 2 2 2 1 2 4 5 5 4 4 4 4 3 4 4 1 1 1 0 1 2 3 3 3 3 2 3 3 4 4 6 7 8 10 9 9 5 7 6 6 5
5 4 4 4 4 2 6 4 3 1 1 1 1 2 2 2 1 2 5 5 5 4 4 5 4 3 3 4 1 2 2 2 4 4 3 3 4 4 3 3 2 3 4 6 7 7 7 7 7 8 8 8 7 7
3 3 4 4 6 8 8 4 3 2 2 2 1 1 2 0 2 3 6 7 7 8 9 8 6 5 5 2 0 2 3 4 3 2 4 3 4 4 4 4 4 4 6 6 6 6 7 8 8 9 9 11 9 10
4 5 3 3 3 5 4 5 3 4 2 2 1 0 1 1 4 4 4 6 5 6 7 7 6 6 5 2 4 4 5 5 6 7 7 8 7 6 4 4 4 4 7 6 5 6 8 11 10 11 12 12 12 12
Wind_Direction
240 231 224 220 217 214 210 208 206 207 206 202 205 203 204 202 199 185 194 187 189 215 226 209 195 185 174 176 212 210 338 187 252 218 240 238 234 221 244 198 191 191 194 204 215 225 257 166 148 207 224 198 200 185
235 228 216 210 207 207 205 202 203 200 204 201 202 203 202 201 199 193 201 181 194 203 267 215 227 228 227 222 180 200 233 265 250 326 357 334 228 177 179 213 178 221 220 202 214 222 301 307 292 233 198 216 206 198
241 205 198 199 195 196 197 195 197 195 197 199 198 199 200 201 203 199 186 160 172 205 253 240 228 218 215 217 210 230 212 210 206 121 295 314 307 296 187 217 178 225 165 186 163 251 267 280 255 247 218 231 232 204
98 163 169 181 184 185 187 189 190 191 192 195 197 199 200 202 202 199 179 166 178 138 226 252 227 232 231 214 206 211 237 248 265 198 215 266 271 256 263 228 202 177 154 180 245 277 294 265 249 243 232 248 220 164
67 110 144 159 167 175 180 182 185 184 187 191 196 199 197 202 200 192 152 180 177 169 174 248 293 217 193 196 214 217 224 226 229 253 248 244 238 251 240 249 214 190 174 186 226 209 178 271 296 248 199 231 200 166
62 71 86 105 150 153 166 149 150 173 177 184 197 191 199 196 132 111 118 287 151 79 71 277 279 228 206 208 212 211 209 213 210 215 219 220 237 246 233 217 232 206 205 212 240 183 209 244 296 238 229 234 195 184
61 69 84 96 106 120 138 153 162 167 174 184 191 176 161 135 129 110 157 172 172 156 139 278 263 174 232 243 175 186 192 188 199 217 224 233 234 198 244 218 265 205 234 235 252 352 284 231 272 9 289 36 78 41
67 69 72 81 86 83 92 103 108 137 131 115 105 112 118 113 103 79 34 137 142 120 156 259 267 289 94 184 171 170 166 175 201 233 247 204 148 213 235 230 228 235 260 301 297 255 275 356 6 38 61 106 155 193
63 66 74 84 91 96 102 104 103 103 104 111 112 99 70 33 62 86 103 88 35 115 199 217 264 288 27 250 131 143 155 168 163 235 247 186 213 200 223 200 230 199 169 300 315 306 296 263 280 279 254 144 214 224
67 65 65 74 84 90 92 97 106 114 117 117 76 59 70 288 125 121 38 96 191 200 233 246 212 248 297 247 60 121 178 163 206 194 213 221 248 270 264 240 269 293 279 267 287 289 250 250 230 245 233 227 227 229
62 68 85 79 90 100 106 112 111 107 72 41 65 64 151 150 64 76 134 185 192 232 210 232 218 226 162 264 129 238 139 70 285 350 319 309 262 292 1 357 1 326 323 304 266 262 248 238 244 245 265 253 227 200
53 63 62 93 117 114 130 128 127 64 96 111 106 94 130 177 139 136 189 178 208 234 191 208 188 185 148 215 134 176 140 176 210 183 206 256 251 232 2 354 353 355 351 340 347 295 254 246 267 246 255 277 242 145
20 24 35 44 57 145 178 167 163 142 113 83 104 146 200 170 170 188 198 173 213 203 192 180 175 159 148 197 92 137 68 351 231 8 284 252 320 26 14 357 344 351 353 341 17 35 57 59 44 44 57 40 72 92
357 355 1 6 8 15 54 181 195 191 167 177 150 170 188 190 235 199 201 194 219 237 193 167 114 172 75 63 71 87 96 201 164 209 239 260 295 272 18 7 342 1 358 1 49 48 58 61 54 46 45 54 86 60
354 348 347 358 360 359 358 144 168 172 144 187 132 202 202 106 100 44 353 287 212 230 172 120 100 116 102 109 114 127 146 163 247 235 238 211 154 95 60 46 19 9 294 79 78 75 69 70 79 74 59 71 82 88
343 353 15 354 353 352 25 119 128 134 81 120 109 127 274 87 287 274 212 212 191 184 141 104 128 75 77 127 145 193 143 206 241 217 215 159 158 117 129 115 173 209 127 93 86 86 83 73 85 89 79 69 70 79
340 12 352 348 342 335 356 90 91 65 132 136 139 130 164 157 203 241 248 320 87 121 143 115 100 170 105 53 195 176 204 221 215 238 221 183 180 181 173 159 190 180 99 90 92 91 93 89 89 90 88 84 87 85
267 317 328 326 336 340 356 42 93 119 116 147 160 190 182 167 163 198 168 290 345 106 127 116 105 184 194 183 217 224 219 197 214 232 226 195 180 173 164 165 161 125 106 96 95 99 95 91 97 100 106 106 100 97
288 295 299 302 290 330 29 343 42 119 214 149 103 153 212 306 205 155 175 213 222 128 126 158 209 211 218 210 212 203 207 201 177 177 191 191 164 158 130 125 122 123 121 120 127 125 113 110 123 125 125 121 110 107
309 307 313 293 160 96 351 322 52 129 165 179 130 180 208 208 179 246 196 174 165 169 176 225 228 228 214 241 209 205 204 169 156 148 167 147 154 140 138 143 140 139 127 135 132 138 132 123 123 132 132 132 126 126
329 318 338 37 61 68 89 356 326 32 5 222 159 180 196 174 189 190 185 172 199 225 236 227 231 249 226 249 206 220 173 165 188 179 165 159 163 145 154 149 139 142 148 158 160 160 158 154 153 151 147 142 131 124
270 333 5 4 74 59 100 65 314 309 290 318 281 186 173 218 216 195 138 182 232 247 238 278 283 304 260 238 204 181 220 162 140 120 96 122 156 171 179 170 159 174 181 179 173 172 167 153 153 150 143 138 132 131
315 33 31 22 99 40 263 2 353 352 352 326 336 24 275 241 251 141 226 193 187 329 298 293 301 295 277 278 138 135 175 171 170 168 165 169 167 165 168 181 184 180 182 182 176 163 161 153 154 151 141 144 143 136
19 39 36 41 52 339 354 352 262 20 24 21 15 334 358 334 331 247 201 71 20 6 17 4 355 341 347 67 122 120 110 165 146 160 174 166 174 184 174 181 185 185 179 161 167 161 158 160 151 155 154 158 162 160
61 344 64 356 339 9 23 2 350 35 9 343 27 341 349 340 16 26 32 50 15 11 356 353 4 4 355 351 1 107 69 135 140 170 195 188 135 129 154 166 177 174 157 152 162 162 165 161 164 165 163 166 171 173
61 336 57 347 332 35 7 16 16 355 9 1 340 332 4 65 58 304 117 201 258 303 331 6 353 347 343 333 315 268 229 142 134 141 203 191 182 166 165 164 161 169 183 162 154 163 162 164 163 159 158 158 157 159
44 354 348 6 327 323 45 20 18 56 19 336 322 2 40 41 286 269 264 223 243 238 230 261 318 321 313 311 307 304 104 95 82 89 58 88 117 152 166 170 178 183 162 161 157 159 161 161 160 157 152 149 169 166
45 359 336 331 5 1 84 31 27 359 318 7 320 1 187 192 239 236 227 329 325 324 305 312 304 280 308 310 290 140 104 101 95 99 96 67 52 48 69 102 84 129 139 147 149 144 150 152 153 155 158 158 152 151
21 353 341 347 6 37 37 33 12 319 302 303 189 254 261 220 333 5 353 334 330 338 336 340 342 343 332 346 22 151 159 154 142 141 123 123 106 62 28 88 122 137 140 129 110 128 139 139 142 144 140 134 134 137
319 341 310 352 345 25 281 252 254 277 256 252 284 299 320 15 46 281 3 4 8 358 326 294 290 329 333 338 343 86 47 75 113 140 167 185 194 145 139 115 114 144 137 125 116 108 99 102 104 100 113 122 129 123
289 316 326 351 296 283 333 309 277 288 285 317 357 292 295 334 315 346 15 352 331 333 345 351 346 338 323 337 301 170 116 39 89 84 86 105 123 139 139 128 125 134 134 136 137 136 134 133 130 128 129 127 123 121
301 285 360 303 300 305 321 345 298 334 344 351 241 333 293 233 59 26 7 358 6 1 349 348 351 344 338 323 338 35 80 114 97 84 102 112 115 113 109 103 101 104 105 108 115 127 135 134 135 132 130 125 121 118
302 298 271 296 301 331 326 349 305 310 313 289 294 131 92 69 78 11 332 5 354 342 336 332 328 330 348 34 76 91 81 92 99 90 83 80 84 88 93 92 92 106 114 114 118 129 130 128 124 123 121 121 118 116